Regional Weather Roundup
Issued by NWS

Home | Current Version | Previous Version | Text Only | Print | Product List | Glossary Off
Versions: 1 2 3 4 5 6 7 8 9 10 11 12 13 14 15 16 17 18 19 20 21 22 23 24 25 26 27

000
ASUS45 KCYS 230610
RWRWY

WYOMING REGIONAL WEATHER ROUNDUP
NATIONAL WEATHER SERVICE CHEYENNE WY
1200 AM MDT MON OCT 23 2017

NOTE:  "FAIR" INDICATES FEW OR NO CLOUDS BELOW 12,000 FEET
WITH NO SIGNIFICANT WEATHER AND/OR OBSTRUCTIONS TO VISIBILITY.

WYZ001-230700-
YELLOWSTONE NATIONAL PARK

CITY           SKY/WX    TMP DP  RH WIND       PRES   REMARKS
LK YELLOWSTONE   N/A     33  29  85 VRB6      30.36R WCI  28
6HR MIN TEMP:  33; 6HR MAX TEMP:  37; 6HR PCP:  0.07;

W YELLOWSTONE  NOT AVBL

$$
WYZ002>013-054>058-071-098>099-230700-
NORTHERN WYOMING

CITY           SKY/WX    TMP DP  RH WIND       PRES   REMARKS
JACKSON        FAIR      46  33  60 W20G29    30.31R
CODY           FAIR      45  35  68 NE9       30.22R
GREYBULL       FAIR      50  23  34 NW16      30.17S
6HR MIN TEMP:  50; 6HR MAX TEMP:  62; 6HR PCP: TRACE;

WORLAND        MOCLDY    48  31  51 N14G23    30.18R
6HR MIN TEMP:  41; 6HR MAX TEMP:  55;

SHERIDAN       MOCLDY    51  25  36 NW23G37   30.16R
6HR MIN TEMP:  50; 6HR MAX TEMP:  64; 6HR PCP:  0.01;

BUFFALO        FAIR      49  22  34 NW25G40   30.15R
6HR MIN TEMP:  45; 6HR MAX TEMP:  61;

GILLETTE       CLOUDY    50  28  42 NW25G38   30.13R
6HR MIN TEMP:  48; 6HR MAX TEMP:  58; 6HR PCP: TRACE;

HULETT         FAIR      50  25  37 W8        30.10R
NEWCASTLE      MOCLDY    46  36  66 NW23G29   30.13R

$$
WYZ014>020-022>026-101>103-230700-
CENTRAL WYOMING

CITY           SKY/WX    TMP DP  RH WIND       PRES   REMARKS
BIG PINEY      CLOUDY    47  30  51 NW13G20   30.36R
6HR MIN TEMP:  41; 6HR MAX TEMP:  48;

PINEDALE       CLOUDY    43  32  65 CALM      30.37S
DUBOIS         CLOUDY    41  32  70 W22G30    30.26R
LANDER         FAIR      52  29  41 S5        30.18R
6HR MIN TEMP:  47; 6HR MAX TEMP:  59;

RIVERTON       MOCLDY    49  32  52 N10       30.20R
6HR MIN TEMP:  45; 6HR MAX TEMP:  60;

CASPER         MOCLDY    49  30  48 SW15      30.16S
6HR MIN TEMP:  46; 6HR MAX TEMP:  58;

DOUGLAS        MOCLDY    55  30  38 NW18      30.13R
6HR MIN TEMP:  54; 6HR MAX TEMP:  60;


$$
WYZ021-027>030-104>119-230700-
SOUTHERN WYOMING

CITY           SKY/WX    TMP DP  RH WIND       PRES   REMARKS
EVANSTON       CLOUDY    50  29  44 W14       30.46R
6HR MIN TEMP:  48; 6HR MAX TEMP:  53;

KEMMERER       FAIR      45  30  57 W22G30    30.38F
FORT BRIDGER   CLOUDY    51  29  43 W23G31    30.42F
ROCK SPRINGS   FAIR      47  27  45 W23G32    30.37S
6HR MIN TEMP:  47; 6HR MAX TEMP:  53;

DIXON          CLOUDY    51  28  40 SW8G20    30.41R
RAWLINS        FAIR      49  27  42 W41G55    30.26S
6HR MIN TEMP:  48; 6HR MAX TEMP:  55;

SARATOGA       CLOUDY    48  28  46 W21G26    30.36S
LARAMIE        MOCLDY    49  27  42 W25G36    30.28R
6HR MIN TEMP:  47; 6HR MAX TEMP:  51;

CHEYENNE       FAIR      54  28  36 NW12      30.19R
6HR MIN TEMP:  51; 6HR MAX TEMP:  58;

TORRINGTON     FAIR      61  28  28 W24G33    30.06R
6HR MIN TEMP:  59; 6HR MAX TEMP:  64;

PINE BLUFFS    FAIR      54  28  37 NW20      30.15R

$$




USA.gov is the U.S. government's official web portal to all federal, state and local government web resources and services.